Regional Weather Roundup
Issued by NWS Upton, NY

Current Version | Previous Version | Text Only | Print | Product List | Glossary On
Versions: 1 2 3 4 5 6 7 8 9 10 11 12 13 14 15 16 17 18 19 20 21 22 23 24 25 26 27 28 29 30 31 32 33 34 35 36 37 38 39 40 41 42 43 44 45 46 47 48 49 50
000 ASUS41 KOKX 301104 RWROKX REGIONAL WEATHER ROUNDUP NATIONAL WEATHER SERVICE NEW YORK NY 700 AM EDT SAT APR 30 2016 NOTE: "FAIR" INDICATES FEW OR NO CLOUDS BELOW 12,000 FEET WITH NO SIGNIFICANT WEATHER AND/OR OBSTRUCTIONS TO VISIBILITY. NYZ071-072-176-178-NJZ106-104-301200- NEW YORK CITY METRO AREA CITY SKY/WX TMP DP RH WIND PRES REMARKS CENTRAL PARK CLOUDY 48 37 65 VRB3 30.24R LAGUARDIA APRT PTSUNNY 48 38 68 NE6 30.21R KENNEDY INTL CLOUDY 47 41 80 NE8 30.23R NEWARK/LIBERTY CLOUDY 45 41 86 N7 30.21R BRNX BOT. GARD N/A 46 39 76 NE3 30.21R TETERBORO CLOUDY 47 39 74 CALM 30.21R $$ NYZ177-179-078>081-301200- LONG ISLAND NEW YORK CITY SKY/WX TMP DP RH WIND PRES REMARKS FARMINGDALE CLOUDY 46 40 79 N3 30.22R ISLIP PTSUNNY 46 39 76 N7 30.19R SHIRLEY MOSUNNY 45 40 82 N5 30.20R RIVERHEAD N/A 45 39 81 NE2 30.20S WESTHAMPTON MOSUNNY 43 39 86 N8 30.20S EAST HAMPTON CLOUDY 40 39 96 CALM 30.20R MONTAUK POINT N/A 45 40 82 NW6 30.22R $$ NYZ052-065-067-301200- HUDSON VALLEY CITY SKY/WX TMP DP RH WIND PRES REMARKS WHITE PLAINS PTSUNNY 44 41 89 CALM 30.20R NEWBURGH PTSUNNY 43 43 100 CALM 30.21R MONTGOMERY CLOUDY 44 42 93 CALM 30.20R POUGHKEEPSIE CLOUDY 47 42 83 NE3 30.20R ALBANY CLOUDY 46 39 76 CALM 30.22R $$ NJZ001-105-106-008-010-013-015-019>022-104-301200- NEW JERSEY CITY SKY/WX TMP DP RH WIND PRES REMARKS NEWARK/LIBERTY CLOUDY 45 41 86 N7 30.21R TETERBORO CLOUDY 47 39 74 CALM 30.21R CALDWELL CLOUDY 46 41 82 CALM 30.22R MORRISTOWN CLOUDY 46 41 81 CALM 30.21R SOMERVILLE CLOUDY 47 43 86 CALM 30.21R SUSSEX CLOUDY 44 41 89 CALM 30.21R ANDOVER N/A 43 40 89 CALM 30.21R TRENTON CLOUDY 46 40 79 N3 30.20R MILLVILLE CLOUDY 47 43 86 NE5 30.18R ATLANTIC CITY CLOUDY 47 44 90 NE5 30.18R WRIGHTSTOWN CLOUDY 46 41 82 N7 30.18R TOMS RIVER CLOUDY 46 39 76 NE3 30.21R BELMAR CLOUDY 47 40 76 NE5 30.21R $$ PAZ047>061-062-071-301200- EASTERN PENNSYLVANIA CITY SKY/WX TMP DP RH WIND PRES REMARKS PHILADELPHIA CLOUDY 49 38 65 NE8 30.20S ALLENTOWN CLOUDY 46 39 76 CALM 30.21R SCRANTON CLOUDY 43 38 82 CALM 30.20R $$ CTZ002-004>006-009-010-012-RIZ004-006-007-MAZ004-011-015-301200- SOUTHERN NEW ENGLAND IN CT CITY SKY/WX TMP DP RH WIND PRES REMARKS BRADLEY INTL PTSUNNY 45 39 79 S7 30.20R HARTFORD CLOUDY 46 38 73 S3 30.22R DANBURY CLOUDY 44 40 85 CALM 30.21R WTRBRY/OXFORD PTSUNNY 43 27 52 N5 30.21S BRIDGEPORT PTSUNNY 46 41 82 N6 30.20S MERIDEN CLOUDY 44 40 85 CALM 30.22R NEW HAVEN CLOUDY 45 42 89 N5 30.21R CHESTER CLOUDY 43 39 87 CALM 30.21R GROTON CLOUDY 45 42 89 NW6 30.22R WILLIMANTIC CLOUDY 45 35 68 CALM 30.22R IN RI CITY SKY/WX TMP DP RH WIND PRES REMARKS PROVIDENCE MOSUNNY 42 36 79 W6 30.22R BLOCK ISLAND PTSUNNY 44 39 82 NW5 30.21R WESTERLY CLOUDY 44 39 82 CALM 30.22R IN MA CITY SKY/WX TMP DP RH WIND PRES REMARKS BOSTON MOSUNNY 45 35 68 SW6 30.22R WORCESTER SUNNY 41 32 70 SW6 30.19R WESTFIELD CLOUDY 45 39 79 S5 30.19R PROVINCETOWN SUNNY 39 36 89 CALM 30.21R NANTUCKET SUNNY 45 36 70 NE6 30.18R $$ ANZ330-335-338-340-345-350-353-355-301200- COASTAL MARINE OBSERVATIONS STATION/POSITION TIME SKY/WX TEMP WIND PRES VSBY WAVE AIR SEA DIR/SP/G HT/PER (UTC) (F) (DEG/KT/KT) (MB) (MI) (FT/S) NY HARB ENTRANCE 0950 47 51 50/ 12/ 14 1021.0 5/ 8 20S FIRE ISLAND 0950 46 48 40/ 12/ 14 1021.1 6/ 8 GREAT SOUTH BAY 1015 46 56 30/ 8/ 10 N/A 23 SSW MONTAUK P 0950 45 47 20/ 12/ 14 1021.4 5/ 7 15 E BARNEGAT LI 1022 50 N/A 7/ 7 HUDSON CANYON 0950 47 47 1019.4 6/ 8 KINGS POINT 1000 46 53 1021.5 EXECUTION ROCKS NOT AVBL CENTRAL LI SOUND 1000 45 70/ 2/ 4 N/A 1/ 4 EASTERN LI SOUND 1000 45 47 280/ 4/ 6 N/A ROBBINS REEF 1000 48 50/ 6/ 8 1021.1 $$ >>>>>>>>>>>>>>>>>>>>>>>>>>>> KEY <<<<<<<<<<<<<<<<<<<<<<<<<<< > < > SKY/WX - SKY CONDITION/PRESENT WEATHER < > TMP - TEMPERATURE IN FAHRENHEIT < > DP - DEWPOINT IN FAHRENHEIT < > RH - RELATIVE HUMIDITY IN PERCENT < > WIND - DIRECTION AND SPEED IN MPH < > PRES - MEAN SEA LEVEL PRESSURE IN INCHES OF HG < > WCI - WIND CHILL INDEX < > VSB - VISIBILITY IN MILES < > HX - HEAT INDEX < > TC - TEMPERATURE IN CELSIUS < > VRB - VARIABLE WIND DIRECTION < > < >>>>>>>>>>>>>>>>>>>>>>>>>>>> KEY <<<<<<<<<<<<<<<<<<<<<<<<<<<

USA.gov is the U.S. government's official web portal to all federal, state and local government web resources and services.